Gillette, WY

8:13 AM MST on December 05, 2016 (GMT -0700)
McCann Heights, central Gillette | | Change Station
Active Advisory: Winter Weather Advisory

Elev 4590 ft 44.28 °N, 105.50 °W | Updated 5 seconds ago

Light Snow
Light Snow Mist
19.7 °F
Feels Like 8 °F
N
10.0
Wind Variable Wind from WSW

Today
High -- | Low -- °F
--% Chance of Precip.
Yesterday
High -- | Low -- °F
Precip. -- in
Pressure 29.64 in
Visibility 0.8 miles
Clouds Few 1000 ft
Overcast 1400 ft
Windchill 8 °F
Dew Point 17 °F
Humidity 88%
Rainfall 0.00 in
Snow Depth Not available.
7:22 AM 4:23 PM
Waxing Crescent, 32% visible
SPECI KGCC 051507Z AUTO 34021KT 3/4SM -SN BR FEW010 OVC014 M07/M08 A2964 RMK AO2 PK WND 34026/1506 P0000 T10671078
Pressure 29.64 in
Visibility 0.8 miles
Clouds Few 1000 ft
Overcast 1400 ft
Windchill 8 °F
Dew Point 17 °F
Humidity 88%
Rainfall 0.00 in
Snow Depth Not available.
7:22 AM 4:23 PM
Waxing Crescent, 32% visible
SPECI KGCC 051507Z AUTO 34021KT 3/4SM -SN BR FEW010 OVC014 M07/M08 A2964 RMK AO2 PK WND 34026/1506 P0000 T10671078

10-Day Weather Forecast

Almanac

Astronomy

Dec. 05, 2016 Rise Set
Actual Time
Civil Twilight
Nautical Twilight
Astronomical Twilight
Moon
Length of Visible Light
Length of Day
Tomorrow will be .
, % of the Moon is Illuminated

Today's Extremes

State Highs State Lows

Community

WunderPhotos

Upload Photos

1,955,789 photos uploaded!

WunderBlog® & News

Nearby

Air Quality

  Air Quality AQ Index Pollutant
Not available.

Snow Depth

Station Depth Elevation

Earthquake Activity

City Distance Mag. Time & Date
Minimum magnitude displayed is 2.5.

Coastal Water Temperatures

Place Temperature

Stations

Nearby Weather Stations

Station Location Temp. Windchill Dew Point Humidity Wind Precip. Elev Updated Type
                   

Watches & Warnings

Winter Weather Advisory
Issued: 3:09 AM MST Dec. 5, 2016 – National Weather Service

... Winter Weather Advisory remains in effect until 5 PM MST this
afternoon...

* timing... through late this afternoon.

* Main impact... 2 to 4 inches of snow and breezy northwest winds
will create blowing snow and reduced visibilities.

* Other impacts... wind chill readings falling to near zero by late
this afternoon.

Precautionary/preparedness actions...

A Winter Weather Advisory means snow... freezing precipitation...
wind... and cold temperatures will create hazardous conditions.
Use caution when outdoors or traveling.